Time,TemperatureF,DewpointF,PressureIn,WindDirection,WindDirectionDegrees,WindSpeedMPH,WindSpeedGustMPH,Humidity,HourlyPrecipIn,Conditions,Clouds,dailyrainin,SolarRadiationWatts/m^2,SoftwareType,DateUTC
2013-03-13 00:12:00,19.0,12.0,-100.00,NW,312,14.0,19.0,73,0.00,,,0.00,1.000000,,2013-03-13 05:12:00,
2013-03-13 00:22:00,19.0,12.0,-100.00,NW,312,14.0,19.0,73,0.00,,,0.00,1.000000,,2013-03-13 05:22:00,
2013-03-13 00:32:00,19.0,12.0,-100.00,NW,312,14.0,19.0,73,0.00,,,0.00,1.000000,,2013-03-13 05:32:00,
2013-03-13 00:42:00,19.0,12.0,-100.00,NW,312,14.0,19.0,73,0.00,,,0.00,1.000000,,2013-03-13 05:42:00,
2013-03-13 01:12:00,19.0,12.0,-100.00,NW,310,12.0,17.0,75,0.00,,,0.00,1.000000,,2013-03-13 06:12:00,
2013-03-13 01:23:00,19.0,12.0,-100.00,NW,310,12.0,17.0,75,0.00,,,0.00,1.000000,,2013-03-13 06:23:00,
2013-03-13 01:32:00,19.0,12.0,-100.00,NW,310,12.0,17.0,75,0.00,,,0.00,1.000000,,2013-03-13 06:32:00,
2013-03-13 01:42:00,19.0,12.0,-100.00,NW,310,12.0,17.0,75,0.00,,,0.00,1.000000,,2013-03-13 06:42:00,
2013-03-13 02:12:00,17.0,11.0,-100.00,NW,309,11.0,17.0,78,0.00,,,0.00,1.000000,,2013-03-13 07:12:00,
2013-03-13 02:22:00,17.0,11.0,-100.00,NW,309,11.0,17.0,78,0.00,,,0.00,1.000000,,2013-03-13 07:22:00,
2013-03-13 02:32:00,17.0,11.0,-100.00,NW,309,11.0,17.0,78,0.00,,,0.00,1.000000,,2013-03-13 07:32:00,
2013-03-13 02:42:00,17.0,11.0,-100.00,NW,309,11.0,17.0,78,0.00,,,0.00,1.000000,,2013-03-13 07:42:00,
2013-03-13 03:12:00,15.0,10.0,-100.00,WNW,294,7.0,14.0,81,0.00,,,0.00,1.000000,,2013-03-13 08:12:00,
2013-03-13 03:22:00,15.0,10.0,-100.00,WNW,294,7.0,14.0,81,0.00,,,0.00,1.000000,,2013-03-13 08:22:00,
2013-03-13 03:32:00,15.0,10.0,-100.00,WNW,294,7.0,14.0,81,0.00,,,0.00,1.000000,,2013-03-13 08:32:00,
2013-03-13 03:43:00,15.0,10.0,-100.00,WNW,294,7.0,14.0,81,0.00,,,0.00,1.000000,,2013-03-13 08:43:00,
2013-03-13 04:12:00,13.0,9.0,-100.00,WNW,300,6.0,10.0,83,0.00,,,0.00,1.000000,,2013-03-13 09:12:00,
2013-03-13 04:22:00,13.0,9.0,-100.00,WNW,300,6.0,10.0,83,0.00,,,0.00,1.000000,,2013-03-13 09:22:00,
2013-03-13 04:32:00,13.0,9.0,-100.00,WNW,300,6.0,10.0,83,0.00,,,0.00,1.000000,,2013-03-13 09:32:00,
2013-03-13 04:42:00,13.0,9.0,-100.00,WNW,300,6.0,10.0,83,0.00,,,0.00,1.000000,,2013-03-13 09:42:00,
2013-03-13 05:12:00,12.0,9.0,-100.00,West,267,2.0,8.0,88,0.00,,,0.00,1.000000,,2013-03-13 10:12:00,
2013-03-13 05:22:00,12.0,9.0,-100.00,West,267,2.0,8.0,88,0.00,,,0.00,1.000000,,2013-03-13 10:22:00,
2013-03-13 05:32:00,12.0,9.0,-100.00,West,267,2.0,8.0,88,0.00,,,0.00,1.000000,,2013-03-13 10:32:00,
2013-03-13 05:42:00,12.0,9.0,-100.00,West,267,2.0,8.0,88,0.00,,,0.00,1.000000,,2013-03-13 10:42:00,
2013-03-13 06:12:00,11.0,8.0,-100.00,WSW,239,3.0,5.0,89,0.00,,,0.00,1.000000,,2013-03-13 11:12:00,
2013-03-13 06:22:00,11.0,8.0,-100.00,WSW,239,3.0,5.0,89,0.00,,,0.00,1.000000,,2013-03-13 11:22:00,
2013-03-13 06:32:00,11.0,8.0,-100.00,WSW,239,3.0,5.0,89,0.00,,,0.00,1.000000,,2013-03-13 11:32:00,
2013-03-13 06:42:00,11.0,8.0,-100.00,WSW,239,3.0,5.0,89,0.00,,,0.00,1.000000,,2013-03-13 11:42:00,
2013-03-13 07:12:00,11.0,8.0,-100.00,West,266,3.0,7.0,88,0.00,,,0.00,1.000000,,2013-03-13 12:12:00,
2013-03-13 07:22:00,11.0,8.0,-100.00,West,266,3.0,7.0,88,0.00,,,0.00,1.000000,,2013-03-13 12:22:00,
2013-03-13 07:32:00,11.0,8.0,-100.00,West,266,3.0,7.0,88,0.00,,,0.00,1.000000,,2013-03-13 12:32:00,
2013-03-13 07:42:00,11.0,8.0,-100.00,West,266,3.0,7.0,88,0.00,,,0.00,1.000000,,2013-03-13 12:42:00,
2013-03-13 08:12:00,11.0,8.0,-100.00,WSW,249,2.0,5.0,89,0.00,,,0.00,7.000000,,2013-03-13 13:12:00,
2013-03-13 08:22:00,11.0,8.0,-100.00,WSW,249,2.0,5.0,89,0.00,,,0.00,7.000000,,2013-03-13 13:22:00,
2013-03-13 08:33:00,11.0,8.0,-100.00,WSW,249,2.0,5.0,89,0.00,,,0.00,7.000000,,2013-03-13 13:33:00,
2013-03-13 08:42:00,11.0,8.0,-100.00,WSW,249,2.0,5.0,89,0.00,,,0.00,7.000000,,2013-03-13 13:42:00,
2013-03-13 09:12:00,13.0,9.0,-100.00,WSW,246,4.0,6.0,83,0.00,,,0.00,129.000000,,2013-03-13 14:12:00,
2013-03-13 09:22:00,13.0,9.0,-100.00,WSW,246,4.0,6.0,83,0.00,,,0.00,129.000000,,2013-03-13 14:22:00,
2013-03-13 09:33:00,13.0,9.0,-100.00,WSW,246,4.0,6.0,83,0.00,,,0.00,129.000000,,2013-03-13 14:33:00,
2013-03-13 09:42:00,13.0,9.0,-100.00,WSW,246,4.0,6.0,83,0.00,,,0.00,129.000000,,2013-03-13 14:42:00,
2013-03-13 10:12:00,16.0,10.0,-100.00,WNW,300,6.0,10.0,76,0.00,,,0.00,310.000000,,2013-03-13 15:12:00,
2013-03-13 10:22:00,16.0,10.0,-100.00,WNW,300,6.0,10.0,76,0.00,,,0.00,310.000000,,2013-03-13 15:22:00,
2013-03-13 10:32:00,16.0,10.0,-100.00,WNW,300,6.0,10.0,76,0.00,,,0.00,310.000000,,2013-03-13 15:32:00,
2013-03-13 10:42:00,16.0,10.0,-100.00,WNW,300,6.0,10.0,76,0.00,,,0.00,310.000000,,2013-03-13 15:42:00,
2013-03-13 11:12:00,19.0,11.0,-100.00,West,273,6.0,9.0,70,0.00,,,0.00,486.000000,,2013-03-13 16:12:00,
2013-03-13 11:22:00,19.0,11.0,-100.00,West,273,6.0,9.0,70,0.00,,,0.00,486.000000,,2013-03-13 16:22:00,
2013-03-13 11:32:00,19.0,11.0,-100.00,West,273,6.0,9.0,70,0.00,,,0.00,486.000000,,2013-03-13 16:32:00,
2013-03-13 11:42:00,19.0,11.0,-100.00,West,273,6.0,9.0,70,0.00,,,0.00,486.000000,,2013-03-13 16:42:00,
2013-03-13 12:12:00,23.0,12.0,-100.00,West,274,5.0,8.0,63,0.00,,,0.00,629.000000,,2013-03-13 17:12:00,
2013-03-13 12:22:00,23.0,12.0,-100.00,West,274,5.0,8.0,63,0.00,,,0.00,629.000000,,2013-03-13 17:22:00,
2013-03-13 12:32:00,23.0,12.0,-100.00,West,274,5.0,8.0,63,0.00,,,0.00,629.000000,,2013-03-13 17:32:00,
2013-03-13 12:42:00,23.0,12.0,-100.00,West,274,5.0,8.0,63,0.00,,,0.00,629.000000,,2013-03-13 17:42:00,
2013-03-13 13:12:00,25.0,13.0,-100.00,SW,226,6.0,8.0,60,0.00,,,0.00,716.000000,,2013-03-13 18:12:00,
2013-03-13 13:22:00,25.0,13.0,-100.00,SW,226,6.0,8.0,60,0.00,,,0.00,716.000000,,2013-03-13 18:22:00,
2013-03-13 13:33:00,25.0,13.0,-100.00,SW,226,6.0,8.0,60,0.00,,,0.00,716.000000,,2013-03-13 18:33:00,
2013-03-13 13:42:00,25.0,13.0,-100.00,SW,226,6.0,8.0,60,0.00,,,0.00,716.000000,,2013-03-13 18:42:00,
2013-03-13 14:12:00,28.0,15.0,-100.00,WSW,248,7.0,10.0,58,0.00,,,0.00,742.000000,,2013-03-13 19:12:00,
2013-03-13 14:22:00,28.0,15.0,-100.00,WSW,248,7.0,10.0,58,0.00,,,0.00,742.000000,,2013-03-13 19:22:00,
2013-03-13 14:32:00,28.0,15.0,-100.00,WSW,248,7.0,10.0,58,0.00,,,0.00,742.000000,,2013-03-13 19:32:00,
2013-03-13 14:43:00,28.0,15.0,-100.00,WSW,248,7.0,10.0,58,0.00,,,0.00,742.000000,,2013-03-13 19:43:00,
2013-03-13 15:02:00,28.0,16.0,-100.00,West,269,7.0,12.0,60,0.00,,,0.00,721.000000,,2013-03-13 20:02:00,
2013-03-13 15:12:00,28.0,16.0,-100.00,West,269,7.0,12.0,60,0.00,,,0.00,721.000000,,2013-03-13 20:12:00,
2013-03-13 15:22:00,28.0,16.0,-100.00,West,269,7.0,12.0,60,0.00,,,0.00,721.000000,,2013-03-13 20:22:00,
2013-03-13 15:32:00,28.0,16.0,-100.00,West,269,7.0,12.0,60,0.00,,,0.00,721.000000,,2013-03-13 20:32:00,
2013-03-13 15:42:00,28.0,16.0,-100.00,West,269,7.0,12.0,60,0.00,,,0.00,721.000000,,2013-03-13 20:42:00,
2013-03-13 16:12:00,29.0,16.0,-100.00,WSW,240,6.0,9.0,58,0.00,,,0.00,627.000000,,2013-03-13 21:12:00,
2013-03-13 16:22:00,29.0,16.0,-100.00,WSW,240,6.0,9.0,58,0.00,,,0.00,627.000000,,2013-03-13 21:22:00,
2013-03-13 16:33:00,29.0,16.0,-100.00,WSW,240,6.0,9.0,58,0.00,,,0.00,627.000000,,2013-03-13 21:33:00,
2013-03-13 16:42:00,29.0,16.0,-100.00,WSW,240,6.0,9.0,58,0.00,,,0.00,627.000000,,2013-03-13 21:42:00,
2013-03-13 17:12:00,29.0,16.0,-100.00,WSW,246,8.0,10.0,57,0.00,,,0.00,493.000000,,2013-03-13 22:12:00,
2013-03-13 17:22:00,29.0,16.0,-100.00,WSW,246,8.0,10.0,57,0.00,,,0.00,493.000000,,2013-03-13 22:22:00,
2013-03-13 17:32:00,29.0,16.0,-100.00,WSW,246,8.0,10.0,57,0.00,,,0.00,493.000000,,2013-03-13 22:32:00,
2013-03-13 17:42:00,29.0,16.0,-100.00,WSW,246,8.0,10.0,57,0.00,,,0.00,493.000000,,2013-03-13 22:42:00,
2013-03-13 18:12:00,29.0,14.0,-100.00,WSW,253,6.0,10.0,52,0.00,,,0.00,331.000000,,2013-03-13 23:12:00,
2013-03-13 18:22:00,29.0,14.0,-100.00,WSW,253,6.0,10.0,52,0.00,,,0.00,331.000000,,2013-03-13 23:22:00,
2013-03-13 18:32:00,29.0,14.0,-100.00,WSW,253,6.0,10.0,52,0.00,,,0.00,331.000000,,2013-03-13 23:32:00,
2013-03-13 18:42:00,29.0,14.0,-100.00,WSW,253,6.0,10.0,52,0.00,,,0.00,331.000000,,2013-03-13 23:42:00,
2013-03-13 19:13:00,26.0,15.0,-100.00,WSW,251,4.0,8.0,62,0.00,,,0.00,123.000000,,2013-03-14 00:13:00,
2013-03-13 19:22:00,26.0,15.0,-100.00,WSW,251,4.0,8.0,62,0.00,,,0.00,123.000000,,2013-03-14 00:22:00,
2013-03-13 19:32:00,26.0,15.0,-100.00,WSW,251,4.0,8.0,62,0.00,,,0.00,123.000000,,2013-03-14 00:32:00,
2013-03-13 19:42:00,26.0,15.0,-100.00,WSW,251,4.0,8.0,62,0.00,,,0.00,123.000000,,2013-03-14 00:42:00,
2013-03-13 20:12:00,22.0,14.0,-100.00,West,276,4.0,6.0,72,0.00,,,0.00,8.000000,,2013-03-14 01:12:00,
2013-03-13 20:22:00,22.0,14.0,-100.00,West,276,4.0,6.0,72,0.00,,,0.00,8.000000,,2013-03-14 01:22:00,
2013-03-13 20:32:00,22.0,14.0,-100.00,West,276,4.0,6.0,72,0.00,,,0.00,8.000000,,2013-03-14 01:32:00,
2013-03-13 20:42:00,22.0,14.0,-100.00,West,276,4.0,6.0,72,0.00,,,0.00,8.000000,,2013-03-14 01:42:00,
2013-03-13 21:12:00,22.0,15.0,-100.00,SSW,212,2.0,5.0,75,0.00,,,0.00,1.000000,,2013-03-14 02:12:00,
2013-03-13 21:22:00,22.0,15.0,-100.00,SSW,212,2.0,5.0,75,0.00,,,0.00,1.000000,,2013-03-14 02:22:00,
2013-03-13 21:32:00,22.0,15.0,-100.00,SSW,212,2.0,5.0,75,0.00,,,0.00,1.000000,,2013-03-14 02:32:00,
2013-03-13 21:42:00,22.0,15.0,-100.00,SSW,212,2.0,5.0,75,0.00,,,0.00,1.000000,,2013-03-14 02:42:00,
2013-03-13 22:12:00,22.0,17.0,-100.00,SE,131,2.0,4.0,80,0.00,,,0.00,1.000000,,2013-03-14 03:12:00,
2013-03-13 22:23:00,22.0,17.0,-100.00,SE,131,2.0,4.0,80,0.00,,,0.00,1.000000,,2013-03-14 03:23:00,
2013-03-13 22:32:00,22.0,17.0,-100.00,SE,131,2.0,4.0,80,0.00,,,0.00,1.000000,,2013-03-14 03:32:00,
2013-03-13 22:42:00,22.0,17.0,-100.00,SE,131,2.0,4.0,80,0.00,,,0.00,1.000000,,2013-03-14 03:42:00,
2013-03-13 23:12:00,24.0,19.0,-100.00,South,181,4.0,7.0,80,0.00,,,0.00,1.000000,,2013-03-14 04:12:00,
2013-03-13 23:22:00,24.0,19.0,-100.00,South,181,4.0,7.0,80,0.00,,,0.00,1.000000,,2013-03-14 04:22:00,
2013-03-13 23:32:00,24.0,19.0,-100.00,South,181,4.0,7.0,80,0.00,,,0.00,1.000000,,2013-03-14 04:32:00,
2013-03-13 23:42:00,24.0,19.0,-100.00,South,181,4.0,7.0,80,0.00,,,0.00,1.000000,,2013-03-14 04:42:00,